Change the Weather History Date:

Tuesday, May 13, 2014

  Actual Average Record
Temperature  
Mean Temperature 73 °F -  
Max Temperature 86 °F 67 °F 86 °F (2014)
Min Temperature 62 °F 45 °F 33 °F (2013)
Cooling Degree Days 8    
Growing Degree Days 23 (Base 50)    
Moisture  
Dew Point 61 °F    
Average Humidity 74    
Maximum Humidity 100    
Minimum Humidity 46    
Precipitation  
Precipitation 0.00 in - - ()
Sea Level Pressure  
Sea Level Pressure 30.04 in    
Wind  
Wind Speed 9 mph (SSW)    
Max Wind Speed 29 mph    
Max Gust Speed 64 mph    
Visibility 7 miles    
Events Rain    
Averages and records for this station are not official NWS values.
T = Trace of Precipitation, MM = Missing Value Source: NWS Daily Summary

Daily Weather History Graph

Daily Weather History Graph

Search for Another Location

Airport or City:

Trip Planner

Search our weather history database for the weather conditions in past years. The results will help you decide how hot, cold, wet, or windy it might be!

Date:

Astronomy

May. 13, 2014 Rise Set
Actual Time 6:12 AM EDT 8:36 PM EDT
Civil Twilight 5:41 AM EDT 9:07 PM EDT
Nautical Twilight 5:02 AM EDT 9:45 PM EDT
Astronomical Twilight 4:20 AM EDT 10:28 PM EDT
Moon 7:36 PM EDT (5/13) 5:28 AM EDT (5/13)
Length of Visible Light 15h 26m
Length of Day
14h 24m
Waxing Gibbous, 98% of the Moon is Illuminated
May 13
Waxing Gibbous
May 14
Full
May 21
Last Quarter
May 28
New
Jun 5
First Quarter

Hourly Weather History & Observations

Time (EDT) Temp. Heat Index Dew Point Humidity Pressure Visibility Wind Dir Wind Speed Gust Speed Precip Events Conditions
12:56 AM 64.9 °F - 61.0 °F 87% 30.06 in 10.0 mi SSE 8.1 mph - N/A   Scattered Clouds
2:56 AM 64.0 °F - 60.1 °F 87% 30.04 in 10.0 mi SSE 5.8 mph - N/A   Clear
3:56 AM 63.0 °F - 60.1 °F 90% 30.02 in 10.0 mi SE 5.8 mph - N/A   Clear
4:56 AM 62.1 °F - 60.1 °F 93% 30.02 in 8.0 mi SE 4.6 mph - N/A   Clear
5:56 AM 62.1 °F - 60.1 °F 93% 30.02 in 4.0 mi ESE 4.6 mph - N/A   Clear
6:52 AM 62.6 °F - 62.6 °F 100% 30.06 in 2.5 mi SE 4.6 mph - N/A   Clear
6:56 AM 63.0 °F - 61.0 °F 93% 30.05 in 3.0 mi ESE 4.6 mph - N/A   Clear
7:05 AM 63.0 °F - 62.1 °F 97% 30.07 in 2.5 mi SE 4.6 mph - N/A   Clear
7:22 AM 64.9 °F - 63.0 °F 93% 30.07 in 3.0 mi SE 8.1 mph - N/A   Clear
7:56 AM 66.9 °F - 64.0 °F 90% 30.05 in 6.0 mi SE 9.2 mph - N/A   Clear
12:56 PM 82.9 °F 84.4 °F 64.0 °F 53% 30.04 in 10.0 mi SW 11.5 mph - N/A   Partly Cloudy
1:56 PM 84.0 °F 85.4 °F 64.0 °F 51% 30.03 in 10.0 mi SSW 18.4 mph 23.0 mph N/A   Partly Cloudy
2:56 PM 84.0 °F 84.9 °F 63.0 °F 49% 30.00 in 10.0 mi South 18.4 mph 27.6 mph N/A   Partly Cloudy
3:56 PM 84.9 °F 85.4 °F 62.1 °F 46% 29.99 in 10.0 mi SW 18.4 mph 25.3 mph N/A   Partly Cloudy
4:56 PM 84.0 °F 84.4 °F 61.0 °F 46% 29.99 in 10.0 mi SW 18.4 mph 24.2 mph N/A   Partly Cloudy
5:56 PM 84.0 °F 84.4 °F 61.0 °F 46% 30.00 in 10.0 mi WSW 16.1 mph 25.3 mph N/A   Partly Cloudy
6:56 PM 82.0 °F 82.7 °F 61.0 °F 49% 29.99 in 10.0 mi WSW 13.8 mph - N/A   Clear
7:56 PM 79.0 °F - 61.0 °F 54% 30.01 in 10.0 mi SW 19.6 mph 25.3 mph 0.00 in Rain Light Rain
8:08 PM 71.1 °F - 62.1 °F 73% 30.04 in 2.0 mi SW 5.8 mph 31.1 mph 0.09 in Rain Light Rain
8:17 PM 72.0 °F - 63.0 °F 73% 30.05 in 10.0 mi West 23.0 mph 44.9 mph 0.09 in Rain Light Rain
8:20 PM 71.1 °F - 60.1 °F 68% 30.06 in 1.0 mi West 28.8 mph 64.4 mph 0.23 in Rain Light Rain
8:30 PM 72.0 °F - 57.9 °F 61% 30.04 in 1.8 mi West 3.5 mph - 0.27 in Rain Light Rain
8:32 PM 72.0 °F - 57.9 °F 61% 30.04 in 4.0 mi WSW 5.8 mph - 0.27 in Rain Light Rain
9:56 PM 64.9 °F - 62.1 °F 90% 30.05 in 10.0 mi WNW 3.5 mph - N/A   Clear
10:56 PM 64.9 °F - 61.0 °F 87% 30.06 in 10.0 mi Calm Calm - N/A   Clear
11:56 PM 64.9 °F - 63.0 °F 93% 30.06 in 10.0 mi Calm Calm - N/A   Overcast